Time,TemperatureF,DewpointF,PressureIn,WindDirection,WindDirectionDegrees,WindSpeedMPH,WindSpeedGustMPH,Humidity,HourlyPrecipIn,Conditions,Clouds,dailyrainin,SoftwareType,DateUTC
2013-05-01 00:00:00,76.5,71.0,29.91,SE,135,3.1,10.0,83,0.00,,BKN050,0.00,VWS V13.01,2013-04-30 14:00:00,
2013-05-01 00:15:00,76.4,70.9,29.90,SE,135,3.1,10.0,83,0.00,,BKN050,0.00,VWS V13.01,2013-04-30 14:15:00,
2013-05-01 00:30:00,76.4,71.2,29.90,SE,135,3.1,10.0,84,0.00,,BKN050,0.00,VWS V13.01,2013-04-30 14:30:00,
2013-05-01 00:45:00,76.4,70.9,29.89,SE,135,3.1,10.0,83,0.00,,BKN050,0.00,VWS V13.01,2013-04-30 14:45:00,
2013-05-01 01:00:00,76.3,70.8,29.88,SE,135,3.1,7.5,83,0.00,,BKN050,0.00,VWS V13.01,2013-04-30 15:00:00,
2013-05-01 01:15:00,76.5,71.0,29.87,SE,135,4.4,12.5,83,0.00,,BKN050,0.00,VWS V13.01,2013-04-30 15:15:00,
2013-05-01 01:30:00,76.5,71.0,29.87,SE,135,4.4,12.5,83,0.00,,BKN050,0.00,VWS V13.01,2013-04-30 15:30:00,
2013-05-01 01:45:00,76.4,71.2,29.86,SE,135,3.1,8.7,84,0.00,,BKN050,0.00,VWS V13.01,2013-04-30 15:45:00,
2013-05-01 02:00:00,76.2,71.0,29.86,SE,135,3.1,11.3,84,0.00,,BKN050,0.00,VWS V13.01,2013-04-30 16:00:00,
2013-05-01 02:15:00,76.3,71.1,29.85,SE,135,4.4,11.3,84,0.00,,BKN050,0.00,VWS V13.01,2013-04-30 16:15:00,
2013-05-01 02:30:00,76.3,71.5,29.85,SE,135,5.6,13.7,85,0.00,,BKN050,0.00,VWS V13.01,2013-04-30 16:30:00,
2013-05-01 02:45:00,76.0,71.2,29.84,SE,135,4.4,12.5,85,0.00,,BKN050,0.00,VWS V13.01,2013-04-30 16:45:00,
2013-05-01 03:00:00,75.9,71.1,29.84,SE,135,4.4,13.7,85,0.00,,BKN050,0.00,VWS V13.01,2013-04-30 17:00:00,
2013-05-01 03:15:00,76.0,70.8,29.84,SE,135,4.4,13.7,84,0.00,,BKN050,0.00,VWS V13.01,2013-04-30 17:15:00,
2013-05-01 03:30:00,76.3,70.4,29.85,SE,135,4.4,12.5,82,0.00,,BKN050,0.00,VWS V13.01,2013-04-30 17:30:00,
2013-05-01 03:45:00,76.8,70.9,29.84,SE,135,4.4,10.0,82,0.00,,BKN050,0.00,VWS V13.01,2013-04-30 17:45:00,
2013-05-01 04:00:00,76.6,70.7,29.84,SE,135,4.4,10.0,82,0.00,,BKN050,0.00,VWS V13.01,2013-04-30 18:00:00,
2013-05-01 04:15:00,76.5,71.0,29.83,SE,135,3.1,8.7,83,0.00,,BKN050,0.00,VWS V13.01,2013-04-30 18:15:00,
2013-05-01 04:30:00,76.3,71.1,29.84,SE,135,3.1,10.0,84,0.00,,BKN050,0.00,VWS V13.01,2013-04-30 18:30:00,
2013-05-01 04:45:00,76.1,70.9,29.84,SE,135,4.4,13.7,84,0.00,,BKN050,0.00,VWS V13.01,2013-04-30 18:45:00,
2013-05-01 05:00:00,76.1,70.9,29.84,SE,135,3.1,10.0,84,0.00,,BKN050,0.00,VWS V13.01,2013-04-30 19:00:00,
2013-05-01 05:15:00,76.0,70.8,29.84,SE,135,3.1,7.5,84,0.00,,BKN050,0.00,VWS V13.01,2013-04-30 19:15:00,
2013-05-01 05:30:00,76.1,70.9,29.84,SE,135,3.1,8.7,84,0.00,,BKN050,0.00,VWS V13.01,2013-04-30 19:30:00,
2013-05-01 05:45:00,76.1,70.6,29.85,SE,135,3.1,11.3,83,0.00,,BKN050,0.00,VWS V13.01,2013-04-30 19:45:00,
2013-05-01 06:00:00,76.3,71.1,29.85,SE,135,1.9,7.5,84,0.00,,BKN050,0.00,VWS V13.01,2013-04-30 20:00:00,
2013-05-01 06:15:00,75.7,71.2,29.85,SE,135,3.1,8.7,86,0.00,,BKN050,0.00,VWS V13.01,2013-04-30 20:15:00,
2013-05-01 06:30:00,75.9,71.1,29.86,SE,135,4.4,15.0,85,0.00,,BKN050,0.00,VWS V13.01,2013-04-30 20:30:00,
2013-05-01 06:42:00,75.9,71.1,29.86,SE,135,4.4,15.0,85,0.00,,BKN050,0.00,VWS V13.01,2013-04-30 20:42:00,
2013-05-01 07:23:00,77.6,71.3,29.89,SE,132,6.9,15.0,81,0.00,,BKN050,0.00,VWS V13.01,2013-04-30 21:23:00,
2013-05-01 07:28:00,77.7,71.4,29.89,ESE,109,4.4,15.0,81,0.00,,BKN050,0.00,VWS V13.01,2013-04-30 21:28:00,
2013-05-01 08:05:00,79.1,72.4,29.89,SE,130,1.9,15.0,80,0.00,,BKN250,0.00,VWS V13.01,2013-04-30 22:05:00,
2013-05-01 08:10:00,79.5,72.4,29.89,SSE,147,1.9,15.0,79,0.00,,BKN250,0.00,VWS V13.01,2013-04-30 22:10:00,
2013-05-01 08:15:00,79.9,71.7,29.89,SE,144,4.4,15.0,76,0.00,,BKN250,0.00,VWS V13.01,2013-04-30 22:15:00,
2013-05-01 08:20:00,80.5,72.2,29.90,SSE,157,4.4,15.0,76,0.00,,BKN250,0.00,VWS V13.01,2013-04-30 22:20:00,
2013-05-01 08:25:00,80.7,72.4,29.90,SE,135,11.9,15.0,76,0.00,,BKN250,0.00,VWS V13.01,2013-04-30 22:25:00,
2013-05-01 08:30:00,80.9,72.6,29.90,SE,137,0.6,15.0,76,0.00,,BKN250,0.00,VWS V13.01,2013-04-30 22:30:00,
2013-05-01 08:35:00,81.3,72.6,29.90,SE,133,5.6,15.0,75,0.00,,BKN250,0.00,VWS V13.01,2013-04-30 22:35:00,
2013-05-01 08:40:00,81.3,71.4,29.90,ESE,114,4.4,15.0,72,0.00,,BKN250,0.00,VWS V13.01,2013-04-30 22:40:00,
2013-05-01 08:45:00,81.7,71.8,29.90,ESE,116,11.9,15.0,72,0.00,,BKN250,0.00,VWS V13.01,2013-04-30 22:45:00,
2013-05-01 08:50:00,81.6,72.1,29.90,SE,133,13.1,15.0,73,0.00,,BKN300,0.00,VWS V13.01,2013-04-30 22:50:00,
2013-05-01 08:55:00,81.6,72.5,29.90,SSE,167,8.1,15.0,74,0.00,,BKN300,0.00,VWS V13.01,2013-04-30 22:55:00,
2013-05-01 09:00:00,81.6,72.1,29.91,SE,137,4.4,15.0,73,0.00,,BKN300,0.00,VWS V13.01,2013-04-30 23:00:00,
2013-05-01 09:05:00,81.8,72.3,29.91,East,95,9.4,15.0,73,0.00,,BKN300,0.00,VWS V13.01,2013-04-30 23:05:00,
2013-05-01 09:10:00,82.2,72.3,29.91,SSE,147,3.1,15.0,72,0.00,,BKN300,0.00,VWS V13.01,2013-04-30 23:10:00,
2013-05-01 09:15:00,81.7,71.4,29.92,SSE,163,8.1,15.0,71,0.00,,BKN300,0.00,VWS V13.01,2013-04-30 23:15:00,
2013-05-01 09:20:00,82.0,72.1,29.92,ESE,119,8.1,15.0,72,0.00,,SCT300,0.00,VWS V13.01,2013-04-30 23:20:00,
2013-05-01 09:25:00,82.2,71.9,29.92,ESE,120,13.1,15.0,71,0.00,,SCT300,0.00,VWS V13.01,2013-04-30 23:25:00,
2013-05-01 09:30:00,82.0,71.7,29.92,SE,135,8.1,16.3,71,0.00,,SCT300,0.00,VWS V13.01,2013-04-30 23:30:00,
2013-05-01 09:45:00,82.1,71.3,29.92,SE,135,6.9,17.5,70,0.00,,SCT300,0.00,VWS V13.01,2013-04-30 23:45:00,
2013-05-01 10:00:00,82.0,70.8,29.92,SE,135,8.1,30.0,69,0.00,,SCT300,0.00,VWS V13.01,2013-05-01 00:00:00,
2013-05-01 10:15:00,82.6,71.4,29.91,SE,135,8.1,18.7,69,0.00,,SCT300,0.00,VWS V13.01,2013-05-01 00:15:00,
2013-05-01 10:30:00,82.7,71.5,29.91,SE,135,8.1,20.0,69,0.00,,SCT300,0.00,VWS V13.01,2013-05-01 00:30:00,
2013-05-01 10:45:00,82.6,71.4,29.91,SE,135,8.1,20.0,69,0.00,,SCT300,0.00,VWS V13.01,2013-05-01 00:45:00,
2013-05-01 11:00:00,82.6,71.4,29.90,SE,135,9.4,20.0,69,0.00,,SCT300,0.00,VWS V13.01,2013-05-01 01:00:00,
2013-05-01 11:15:00,83.0,71.4,29.90,SE,135,8.1,22.5,68,0.00,,SCT300,0.00,VWS V13.01,2013-05-01 01:15:00,
2013-05-01 11:30:00,83.4,71.3,29.89,SE,135,9.4,22.5,67,0.00,,SCT300,0.00,VWS V13.01,2013-05-01 01:30:00,
2013-05-01 11:45:00,83.3,71.6,29.88,ESE,112,10.6,22.5,68,0.00,,SCT300,0.00,VWS V13.01,2013-05-01 01:45:00,
2013-05-01 12:00:00,83.6,71.5,29.87,ESE,112,10.6,26.2,67,0.00,,SCT300,0.00,VWS V13.01,2013-05-01 02:00:00,
2013-05-01 12:15:00,83.7,71.6,29.86,SE,135,9.4,25.0,67,0.00,,SCT300,0.00,VWS V13.01,2013-05-01 02:15:00,
2013-05-01 12:30:00,83.4,72.6,29.86,SE,135,9.4,23.7,70,0.00,,SCT300,0.00,VWS V13.01,2013-05-01 02:30:00,
2013-05-01 12:45:00,83.1,70.6,29.85,SE,135,8.1,17.5,66,0.00,,SCT300,0.00,VWS V13.01,2013-05-01 02:45:00,
2013-05-01 13:00:00,83.2,70.2,29.85,SE,135,6.9,17.5,65,0.00,,SCT300,0.00,VWS V13.01,2013-05-01 03:00:00,
2013-05-01 13:15:00,83.2,70.2,29.84,SE,135,9.4,23.7,65,0.00,,SCT300,0.00,VWS V13.01,2013-05-01 03:15:00,
2013-05-01 13:30:00,83.4,69.9,29.83,SE,135,8.1,23.7,64,0.00,,SCT300,0.00,VWS V13.01,2013-05-01 03:30:00,
2013-05-01 13:45:00,83.7,70.7,29.83,SE,135,8.1,27.5,65,0.00,,SCT300,0.00,VWS V13.01,2013-05-01 03:45:00,
2013-05-01 14:00:00,83.5,70.1,29.83,SE,135,9.4,21.3,64,0.00,,SCT300,0.00,VWS V13.01,2013-05-01 04:00:00,
2013-05-01 14:15:00,83.2,70.7,29.82,SE,135,8.1,22.5,66,0.00,,SCT300,0.00,VWS V13.01,2013-05-01 04:15:00,
2013-05-01 14:30:00,83.3,68.9,29.82,SE,135,8.1,18.7,62,0.00,,SCT300,0.00,VWS V13.01,2013-05-01 04:30:00,
2013-05-01 14:45:00,83.2,69.8,29.82,SE,135,6.9,22.5,64,0.00,,SCT300,0.00,VWS V13.01,2013-05-01 04:45:00,
2013-05-01 15:00:00,83.0,70.0,29.82,SE,135,6.9,17.5,65,0.00,,SCT300,0.00,VWS V13.01,2013-05-01 05:00:00,
2013-05-01 15:15:00,83.2,68.4,29.82,SE,135,5.6,16.3,61,0.00,,SCT300,0.00,VWS V13.01,2013-05-01 05:15:00,
2013-05-01 15:30:00,83.0,68.7,29.83,SE,135,6.9,16.3,62,0.00,,SCT300,0.00,VWS V13.01,2013-05-01 05:30:00,
2013-05-01 15:45:00,82.6,68.7,29.83,SE,135,5.6,15.0,63,0.00,,SCT300,0.00,VWS V13.01,2013-05-01 05:45:00,
2013-05-01 16:00:00,82.4,69.5,29.83,SE,135,6.9,16.3,65,0.00,,SCT300,0.00,VWS V13.01,2013-05-01 06:00:00,
2013-05-01 16:15:00,81.9,69.4,29.83,SE,135,6.9,13.7,66,0.00,,SCT300,0.00,VWS V13.01,2013-05-01 06:15:00,
2013-05-01 16:30:00,81.3,69.3,29.83,SE,135,9.4,18.7,67,0.00,,SCT300,0.00,VWS V13.01,2013-05-01 06:30:00,
2013-05-01 16:45:00,81.0,69.0,29.84,SE,135,6.9,20.0,67,0.00,,SCT300,0.00,VWS V13.01,2013-05-01 06:45:00,
2013-05-01 17:00:00,80.9,69.8,29.85,SE,135,5.6,17.5,69,0.00,,SCT300,0.00,VWS V13.01,2013-05-01 07:00:00,
2013-05-01 17:15:00,80.4,70.1,29.85,SE,135,6.9,16.3,71,0.00,,SCT300,0.00,VWS V13.01,2013-05-01 07:15:00,
2013-05-01 17:30:00,80.1,69.4,29.86,SE,135,6.9,18.7,70,0.00,,SCT300,0.00,VWS V13.01,2013-05-01 07:30:00,
2013-05-01 17:45:00,79.9,69.7,29.86,SE,135,5.6,15.0,71,0.00,,SCT300,0.00,VWS V13.01,2013-05-01 07:45:00,
2013-05-01 18:00:00,79.5,70.1,29.86,SE,135,5.6,15.0,73,0.00,,SCT300,0.00,VWS V13.01,2013-05-01 08:00:00,
2013-05-01 18:15:00,79.2,69.8,29.87,SE,135,5.6,16.3,73,0.00,,SCT300,0.00,VWS V13.01,2013-05-01 08:15:00,
2013-05-01 18:30:00,79.0,70.0,29.87,SE,135,5.6,13.7,74,0.00,,SCT300,0.00,VWS V13.01,2013-05-01 08:30:00,
2013-05-01 18:45:00,78.7,69.7,29.88,SE,135,5.6,21.3,74,0.00,,SCT300,0.00,VWS V13.01,2013-05-01 08:45:00,
2013-05-01 19:00:00,78.3,69.3,29.88,SE,135,4.4,10.0,74,0.00,,SCT300,0.00,VWS V13.01,2013-05-01 09:00:00,
2013-05-01 19:15:00,78.3,69.7,29.88,SE,135,4.4,11.3,75,0.00,,SCT300,0.00,VWS V13.01,2013-05-01 09:15:00,
2013-05-01 19:30:00,78.2,70.0,29.89,SE,135,4.4,11.3,76,0.00,,SCT300,0.00,VWS V13.01,2013-05-01 09:30:00,
2013-05-01 19:45:00,78.0,69.8,29.89,SE,135,4.4,11.3,76,0.00,,SCT300,0.00,VWS V13.01,2013-05-01 09:45:00,
2013-05-01 20:00:00,77.8,70.0,29.90,SE,135,4.4,10.0,77,0.00,,SCT300,0.00,VWS V13.01,2013-05-01 10:00:00,
2013-05-01 20:15:00,77.1,71.5,29.90,SE,135,3.1,10.0,83,0.00,,SCT300,0.00,VWS V13.01,2013-05-01 10:15:00,
2013-05-01 20:30:00,75.4,70.9,29.91,SE,135,3.1,10.0,86,0.00,,SCT300,0.00,VWS V13.01,2013-05-01 10:30:00,
2013-05-01 20:45:00,75.0,69.8,29.91,SE,135,3.1,8.7,84,0.00,,SCT300,0.00,VWS V13.01,2013-05-01 10:45:00,
2013-05-01 21:00:00,75.0,69.5,29.91,SE,135,3.1,6.2,83,0.00,,SCT300,0.00,VWS V13.01,2013-05-01 11:00:00,
2013-05-01 21:15:00,75.5,69.6,29.92,SE,135,3.1,12.5,82,0.00,,SCT300,0.00,VWS V13.01,2013-05-01 11:15:00,
2013-05-01 21:30:00,75.7,69.8,29.91,SE,135,4.4,12.5,82,0.00,,SCT300,0.00,VWS V13.01,2013-05-01 11:30:00,
2013-05-01 21:45:00,75.7,70.2,29.92,SE,135,4.4,12.5,83,0.00,,SCT300,0.00,VWS V13.01,2013-05-01 11:45:00,
2013-05-01 22:00:00,75.0,69.8,29.92,SE,135,3.1,12.5,84,0.00,,SCT300,0.00,VWS V13.01,2013-05-01 12:00:00,
2013-05-01 22:15:00,74.7,70.6,29.92,SE,135,3.1,10.0,87,0.01,,SCT300,0.01,VWS V13.01,2013-05-01 12:15:00,
2013-05-01 22:30:00,74.2,70.1,29.92,SE,135,3.1,7.5,87,0.01,,SCT300,0.01,VWS V13.01,2013-05-01 12:30:00,
2013-05-01 22:45:00,74.3,70.5,29.92,SE,135,3.1,12.5,88,0.01,,SCT300,0.01,VWS V13.01,2013-05-01 12:45:00,
2013-05-01 23:00:00,74.5,70.4,29.91,SE,135,3.1,11.3,87,0.01,,SCT300,0.01,VWS V13.01,2013-05-01 13:00:00,
2013-05-01 23:15:00,74.7,70.2,29.91,SE,135,1.9,10.0,86,0.01,,SCT300,0.01,VWS V13.01,2013-05-01 13:15:00,
2013-05-01 23:30:00,75.0,69.8,29.91,SE,135,1.9,8.7,84,0.00,,SCT300,0.01,VWS V13.01,2013-05-01 13:30:00,
2013-05-01 23:45:00,75.2,70.4,29.91,SE,135,3.1,11.3,85,0.00,,SCT300,0.01,VWS V13.01,2013-05-01 13:45:00,